Temp
-12 -13 -12 -12 -12 -10 -11 -12 -12 -11 -11 -10 -11 -10 -11 -10 -10 -10 -10 -10 -10 -10 -10 -10 -9 -9 -10 -10 -9 -9 -9 -9 -9 -9 -9 -9 -9 -9 -10 -10 -10 -10 -10
-13 -14 -13 -13 -13 -12 -12 -11 -12 -11 -11 -10 -11 -10 -10 -11 -10 -10 -10 -10 -10 -10 -10 -10 -10 -10 -10 -10 -10 -10 -10 -10 -10 -10 -10 -10 -10 -10 -10 -10 -10 -10 -10
-15 -15 -15 -13 -14 -13 -13 -14 -13 -12 -11 -11 -11 -12 -11 -12 -11 -10 -10 -11 -11 -11 -11 -10 -11 -10 -11 -11 -11 -11 -10 -10 -10 -10 -10 -11 -10 -10 -10 -10 -11 -10 -10
-15 -15 -15 -15 -14 -14 -14 -14 -14 -13 -12 -11 -12 -12 -11 -12 -10 -10 -10 -11 -11 -11 -11 -11 -11 -11 -11 -11 -11 -12 -11 -11 -11 -11 -11 -11 -11 -11 -11 -11 -11 -11 -11
-14 -15 -15 -14 -14 -14 -14 -13 -13 -13 -12 -12 -11 -11 -11 -11 -10 -11 -11 -11 -11 -11 -11 -11 -11 -11 -11 -12 -11 -11 -11 -11 -11 -11 -11 -11 -11 -11 -11 -11 -11 -11 -11
-15 -15 -14 -15 -14 -14 -13 -13 -12 -13 -12 -13 -12 -12 -11 -10 -10 -10 -11 -11 -12 -12 -12 -12 -11 -11 -11 -12 -11 -12 -12 -12 -12 -12 -12 -12 -12 -12 -12 -11 -11 -11 -11
-15 -15 -15 -15 -15 -14 -13 -12 -12 -13 -12 -12 -11 -12 -11 -10 -10 -11 -11 -11 -12 -12 -12 -12 -11 -12 -12 -12 -12 -12 -12 -12 -12 -12 -12 -12 -12 -12 -12 -12 -12 -12 -12
-15 -15 -14 -15 -14 -13 -13 -12 -12 -12 -12 -11 -11 -12 -11 -10 -11 -12 -12 -12 -12 -12 -12 -12 -12 -12 -12 -12 -12 -13 -13 -13 -12 -12 -12 -12 -12 -12 -12 -12 -12 -12 -12
-15 -15 -15 -15 -15 -14 -14 -13 -12 -12 -12 -12 -12 -12 -12 -11 -12 -12 -12 -12 -12 -12 -12 -12 -12 -12 -12 -12 -13 -13 -13 -13 -14 -13 -13 -13 -13 -13 -12 -12 -12 -12 -12
-14 -15 -14 -13 -14 -14 -13 -13 -12 -12 -12 -12 -11 -11 -12 -12 -11 -13 -12 -12 -13 -12 -12 -12 -13 -12 -12 -13 -13 -14 -13 -14 -14 -13 -13 -13 -13 -13 -13 -13 -13 -13 -13
-14 -14 -15 -14 -14 -14 -13 -13 -12 -12 -12 -12 -11 -12 -12 -11 -12 -13 -12 -13 -13 -12 -13 -13 -13 -13 -13 -13 -13 -14 -14 -14 -15 -14 -14 -13 -13 -13 -13 -13 -13 -13 -13
-13 -13 -14 -14 -13 -13 -13 -12 -13 -12 -12 -12 -11 -12 -12 -12 -12 -13 -12 -13 -13 -13 -13 -13 -13 -13 -13 -13 -13 -14 -15 -15 -15 -14 -14 -14 -13 -13 -13 -13 -13 -13 -13
-13 -13 -14 -13 -13 -13 -13 -13 -12 -12 -12 -12 -11 -11 -12 -12 -12 -13 -13 -13 -13 -13 -13 -13 -13 -13 -13 -12 -13 -14 -15 -16 -15 -15 -14 -14 -14 -14 -14 -14 -13 -13 -13
-13 -14 -13 -13 -13 -13 -12 -13 -12 -12 -12 -12 -11 -12 -11 -12 -11 -12 -13 -13 -13 -13 -13 -13 -13 -13 -13 -13 -14 -15 -16 -16 -16 -15 -14 -14 -14 -14 -14 -14 -13 -13 -13
-14 -14 -14 -13 -13 -12 -12 -12 -12 -12 -12 -12 -12 -11 -11 -11 -12 -12 -12 -13 -13 -13 -13 -13 -13 -13 -13 -14 -15 -15 -16 -16 -15 -15 -15 -15 -15 -14 -14 -14 -14 -14 -14
-14 -14 -14 -13 -13 -13 -12 -12 -12 -12 -12 -12 -12 -12 -11 -11 -12 -13 -12 -13 -13 -13 -13 -13 -13 -14 -14 -15 -15 -16 -17 -16 -16 -15 -15 -15 -15 -14 -14 -15 -14 -14 -14
-13 -13 -14 -13 -13 -13 -13 -13 -13 -12 -12 -12 -12 -12 -12 -12 -13 -13 -12 -13 -13 -13 -14 -14 -13 -14 -14 -14 -16 -16 -17 -16 -16 -16 -16 -15 -15 -15 -15 -14 -14 -14 -14
-13 -13 -13 -14 -13 -13 -13 -13 -13 -13 -13 -12 -12 -12 -12 -12 -12 -12 -13 -13 -14 -14 -14 -14 -13 -14 -14 -15 -16 -17 -17 -17 -17 -16 -16 -16 -15 -15 -14 -14 -14 -14 -14
-12 -12 -13 -13 -14 -13 -13 -13 -13 -13 -13 -13 -13 -12 -13 -12 -13 -13 -13 -13 -13 -14 -14 -14 -14 -15 -15 -16 -17 -18 -18 -17 -17 -17 -16 -16 -15 -15 -14 -14 -14 -14 -14
-13 -12 -13 -13 -13 -14 -14 -13 -13 -13 -13 -13 -13 -13 -13 -13 -13 -13 -13 -13 -14 -14 -14 -15 -15 -15 -16 -16 -17 -18 -18 -18 -17 -16 -16 -15 -15 -15 -14 -15 -15 -15 -15
-14 -13 -14 -13 -13 -13 -14 -13 -13 -13 -13 -13 -13 -13 -13 -13 -14 -13 -14 -14 -14 -14 -15 -15 -16 -16 -17 -17 -18 -18 -17 -17 -17 -16 -16 -15 -15 -15 -15 -15 -15 -15 -15
-14 -13 -13 -13 -13 -13 -14 -13 -13 -13 -13 -13 -13 -13 -13 -13 -14 -14 -14 -14 -15 -15 -15 -16 -17 -17 -17 -17 -18 -17 -17 -17 -16 -16 -16 -16 -15 -15 -15 -15 -15 -16 -15
-14 -13 -13 -13 -13 -13 -13 -13 -13 -13 -13 -13 -13 -13 -13 -14 -14 -14 -14 -15 -15 -15 -16 -16 -17 -17 -16 -17 -18 -17 -17 -17 -16 -16 -16 -15 -15 -15 -15 -15 -16 -16 -15
-14 -14 -13 -13 -14 -13 -13 -13 -13 -14 -14 -14 -14 -14 -14 -14 -14 -15 -15 -14 -14 -15 -15 -16 -16 -16 -16 -16 -16 -17 -17 -16 -16 -16 -16 -16 -16 -15 -15 -16 -16 -15 -15
-14 -14 -14 -14 -14 -14 -13 -13 -13 -13 -13 -13 -13 -14 -13 -14 -14 -14 -15 -15 -15 -15 -16 -16 -15 -15 -16 -16 -16 -16 -16 -16 -16 -16 -16 -16 -16 -16 -16 -16 -16 -16 -16
-14 -14 -14 -14 -14 -14 -14 -13 -13 -13 -13 -13 -14 -14 -14 -14 -14 -15 -15 -15 -16 -16 -16 -16 -16 -16 -16 -16 -16 -16 -16 -16 -16 -16 -16 -16 -16 -16 -16 -16 -16 -16 -16
Height
5795 5798 5799 5802 5806 5807 5809 5806 5814 5815 5819 5822 5827 5828 5832 5835 5839 5841 5844 5847 5848 5851 5853 5853 5856 5856 5857 5858 5859 5859 5859 5859 5860 5859 5859 5859 5859 5858 5857 5856 5855 5855 5855
5788 5790 5793 5796 5797 5798 5800 5802 5808 5812 5814 5817 5822 5825 5828 5831 5836 5838 5841 5844 5847 5847 5850 5852 5854 5854 5854 5855 5856 5857 5857 5858 5857 5857 5857 5857 5856 5855 5855 5855 5854 5855 5854
5782 5784 5786 5789 5793 5794 5796 5797 5803 5808 5807 5814 5818 5821 5824 5828 5831 5834 5838 5841 5843 5843 5846 5849 5850 5851 5851 5852 5854 5854 5854 5855 5854 5855 5854 5855 5854 5854 5854 5854 5855 5854 5853
5779 5779 5780 5785 5789 5790 5792 5795 5799 5801 5805 5809 5814 5817 5820 5824 5828 5831 5835 5838 5839 5841 5844 5846 5847 5848 5849 5850 5850 5852 5851 5851 5852 5852 5852 5852 5853 5852 5852 5853 5852 5852 5851
5772 5774 5777 5780 5785 5786 5788 5791 5795 5799 5803 5806 5811 5813 5817 5822 5824 5827 5831 5833 5835 5837 5841 5843 5843 5845 5846 5846 5847 5848 5848 5849 5849 5849 5849 5850 5850 5850 5851 5850 5850 5849 5849
5767 5768 5771 5774 5776 5781 5784 5787 5790 5793 5798 5802 5806 5810 5815 5818 5820 5825 5828 5828 5833 5834 5837 5839 5840 5841 5842 5842 5843 5844 5845 5845 5845 5846 5848 5847 5847 5846 5847 5847 5847 5846 5847
5762 5761 5765 5768 5772 5776 5781 5784 5786 5790 5793 5795 5799 5805 5810 5812 5817 5819 5824 5825 5828 5830 5832 5835 5835 5837 5839 5838 5839 5839 5841 5842 5843 5844 5845 5845 5845 5845 5844 5845 5845 5845 5844
5754 5756 5758 5760 5763 5770 5774 5777 5781 5783 5788 5790 5793 5800 5807 5808 5813 5817 5820 5821 5824 5827 5828 5830 5832 5834 5835 5836 5836 5836 5838 5840 5841 5841 5841 5842 5842 5844 5843 5843 5844 5844 5843
5744 5747 5746 5752 5758 5763 5768 5770 5774 5777 5779 5783 5790 5796 5802 5805 5808 5813 5815 5817 5820 5822 5824 5826 5829 5830 5832 5832 5832 5834 5836 5837 5838 5840 5840 5840 5841 5841 5842 5842 5841 5842 5841
5739 5742 5739 5744 5751 5755 5761 5763 5769 5771 5774 5777 5783 5790 5795 5801 5805 5811 5811 5815 5817 5818 5820 5824 5825 5826 5828 5828 5829 5831 5833 5834 5836 5838 5838 5838 5838 5838 5839 5839 5840 5840 5840
5736 5738 5739 5739 5746 5750 5755 5759 5763 5765 5768 5773 5777 5785 5791 5797 5803 5806 5807 5810 5813 5814 5816 5819 5822 5822 5822 5824 5825 5827 5828 5829 5831 5834 5835 5835 5836 5835 5836 5837 5837 5837 5838
5732 5732 5737 5740 5744 5749 5751 5752 5758 5760 5762 5768 5775 5781 5788 5793 5798 5801 5803 5806 5809 5811 5813 5815 5818 5819 5818 5821 5822 5822 5824 5824 5827 5830 5831 5832 5833 5834 5834 5834 5835 5835 5835
5732 5731 5734 5736 5742 5743 5746 5748 5752 5754 5757 5764 5770 5776 5782 5789 5792 5796 5799 5802 5805 5808 5808 5810 5812 5814 5816 5818 5818 5819 5820 5822 5825 5826 5828 5828 5829 5830 5830 5830 5831 5831 5832
5733 5732 5731 5733 5735 5737 5739 5741 5747 5751 5754 5760 5767 5773 5779 5784 5788 5791 5795 5798 5801 5803 5804 5806 5808 5811 5812 5812 5814 5815 5816 5818 5821 5824 5824 5825 5826 5827 5826 5827 5828 5828 5828
5732 5732 5731 5731 5730 5731 5732 5736 5742 5749 5754 5758 5763 5769 5774 5779 5783 5787 5791 5794 5798 5799 5800 5800 5801 5804 5806 5807 5809 5809 5812 5815 5818 5820 5821 5823 5823 5823 5823 5824 5824 5824 5824
5731 5730 5729 5729 5729 5729 5728 5731 5738 5745 5751 5754 5758 5764 5770 5775 5779 5782 5785 5790 5792 5794 5796 5796 5797 5799 5800 5801 5804 5807 5811 5813 5816 5817 5818 5818 5818 5819 5819 5819 5819 5820 5820
5730 5731 5729 5727 5727 5728 5728 5730 5735 5742 5745 5750 5757 5763 5764 5770 5775 5778 5780 5784 5787 5788 5790 5792 5793 5794 5795 5797 5800 5803 5806 5810 5812 5813 5813 5814 5814 5813 5814 5815 5814 5814 5813
5726 5726 5727 5726 5727 5730 5730 5732 5735 5741 5745 5751 5756 5758 5762 5766 5770 5772 5776 5779 5781 5783 5785 5787 5787 5790 5791 5791 5794 5798 5802 5805 5806 5806 5808 5809 5810 5809 5811 5809 5809 5808 5807
5723 5721 5724 5724 5726 5729 5731 5733 5736 5739 5743 5748 5752 5755 5759 5762 5766 5769 5772 5774 5775 5776 5779 5781 5781 5783 5785 5787 5790 5795 5799 5800 5801 5802 5804 5804 5805 5805 5806 5803 5801 5801 5800
5723 5721 5723 5723 5725 5728 5730 5733 5735 5738 5742 5746 5750 5753 5757 5759 5763 5765 5768 5770 5772 5773 5773 5774 5776 5777 5778 5781 5785 5790 5793 5794 5796 5797 5799 5799 5798 5799 5798 5795 5793 5793 5791
5727 5723 5721 5722 5724 5727 5729 5732 5735 5739 5741 5744 5748 5751 5755 5756 5758 5762 5765 5766 5766 5768 5768 5769 5771 5772 5774 5778 5782 5786 5786 5789 5791 5791 5792 5792 5791 5792 5790 5788 5786 5784 5781
5728 5727 5726 5725 5724 5725 5727 5730 5734 5737 5739 5742 5745 5749 5752 5754 5756 5758 5759 5761 5761 5762 5764 5765 5768 5771 5772 5774 5777 5779 5783 5786 5785 5786 5786 5786 5784 5784 5783 5781 5778 5776 5772
5728 5728 5727 5725 5724 5724 5726 5729 5733 5734 5736 5740 5744 5746 5748 5749 5751 5753 5754 5756 5757 5758 5760 5761 5765 5768 5770 5772 5774 5776 5778 5780 5780 5780 5779 5779 5777 5776 5774 5772 5770 5767 5764
5727 5728 5728 5726 5725 5725 5727 5728 5731 5732 5732 5735 5739 5740 5743 5744 5745 5748 5750 5752 5756 5755 5758 5760 5763 5765 5766 5770 5771 5771 5772 5773 5774 5774 5772 5771 5770 5769 5766 5764 5762 5759 5756
5726 5726 5727 5727 5727 5726 5727 5729 5730 5731 5733 5735 5737 5738 5741 5743 5744 5746 5748 5752 5753 5755 5755 5758 5761 5761 5760 5763 5764 5764 5765 5768 5767 5767 5766 5766 5763 5760 5758 5755 5753 5749 5746
5725 5726 5727 5727 5728 5729 5728 5729 5729 5729 5731 5734 5735 5737 5739 5740 5743 5745 5747 5747 5747 5751 5754 5755 5755 5754 5756 5757 5757 5759 5759 5758 5758 5758 5757 5757 5754 5751 5748 5745 5742 5738 5736
Wind_Speed
38 37 38 36 30 23 35 30 36 36 28 27 24 29 30 26 22 18 12 10 8 8 8 9 12 12 12 14 16 19 20 21 22 19 19 18 20 19 18 15 11 10 9
35 40 41 37 37 28 34 29 23 35 28 26 29 33 29 25 21 16 13 9 7 6 8 10 11 12 13 16 15 18 18 20 19 17 18 18 18 17 16 12 9 8 7
29 31 39 44 29 34 27 17 25 30 27 25 35 30 31 25 24 19 11 8 6 5 9 10 11 12 14 15 17 19 17 16 16 17 18 17 16 15 12 9 8 7 6
24 31 31 38 36 36 30 19 21 21 29 22 36 36 29 26 21 16 13 9 8 8 8 8 11 13 15 16 16 16 17 16 17 17 15 14 14 10 9 9 8 8 8
27 29 31 28 35 36 35 22 22 21 23 22 38 31 28 27 22 17 14 12 10 7 7 10 11 14 16 16 18 18 18 17 19 16 14 13 12 10 10 9 9 7 8
25 29 28 27 27 21 18 20 23 24 25 27 32 34 33 28 21 21 17 11 10 9 9 10 11 14 18 18 19 18 18 19 17 15 14 12 10 10 11 10 9 7 7
25 28 23 25 24 15 16 17 27 32 27 30 33 39 36 29 25 20 17 14 11 10 10 12 12 14 15 16 18 18 19 19 17 15 14 12 12 12 10 10 8 8 8
30 28 28 27 26 27 24 22 22 21 24 29 31 39 37 30 27 22 19 13 12 14 13 13 16 18 18 20 20 19 20 21 18 16 15 14 13 13 11 10 9 8 8
29 28 29 33 31 25 27 25 29 31 20 23 36 41 37 31 26 24 18 14 15 15 14 15 15 15 15 18 20 20 20 21 18 17 15 14 13 11 11 10 9 9 7
19 26 26 36 18 18 25 25 28 25 28 27 31 46 38 33 25 24 18 17 15 15 16 18 17 19 20 18 17 20 22 19 17 17 15 15 13 12 12 10 10 8 7
20 24 29 22 13 17 21 22 28 26 23 27 35 44 38 27 27 24 18 17 16 16 17 19 21 17 18 17 19 20 20 22 19 17 16 15 14 14 12 11 10 9 8
9 15 24 24 21 25 26 30 30 25 26 31 38 41 37 29 30 25 19 17 17 17 22 21 20 19 22 20 22 23 25 24 18 19 16 16 15 15 13 12 12 10 10
7 11 16 18 18 20 25 28 27 27 35 39 34 44 40 30 31 26 20 22 21 21 19 25 22 23 25 21 19 21 22 20 20 20 21 17 16 16 14 14 14 13 14
7 6 9 7 7 15 24 26 22 19 37 40 33 38 38 29 37 27 25 23 22 23 23 25 28 28 24 20 22 26 26 25 22 22 20 19 16 15 15 15 15 16 15
8 7 7 7 7 13 17 29 24 22 37 37 33 34 43 37 38 31 25 25 20 19 21 26 28 28 24 22 25 31 27 22 23 21 20 20 17 15 16 17 17 17 18
9 8 10 6 10 1 18 20 25 34 27 35 36 32 42 33 34 34 26 26 22 20 23 25 26 27 23 24 24 26 27 24 25 21 18 17 18 20 20 18 18 22 25
11 13 13 7 15 14 13 23 26 28 31 36 33 30 24 29 34 28 27 25 23 22 24 25 27 27 24 26 28 30 23 25 22 20 21 23 22 20 20 23 25 26 27
9 13 14 13 11 8 10 15 24 25 25 33 34 24 26 28 31 32 28 23 21 24 29 28 26 29 29 29 29 29 28 26 24 23 24 25 25 22 24 25 27 28 30
10 10 13 12 7 14 8 9 11 19 30 28 33 28 26 28 31 31 28 22 23 28 30 29 28 30 30 32 35 30 29 27 27 28 28 26 24 26 29 30 29 30 32
13 6 17 20 12 9 9 13 17 14 17 29 29 28 27 27 27 28 28 28 29 28 31 30 30 30 32 32 32 29 31 35 30 28 27 26 26 29 32 33 35 37 36
7 8 9 18 16 20 11 11 10 13 15 20 27 26 25 23 24 27 29 29 28 30 29 28 28 31 33 31 32 37 36 30 29 29 30 29 31 33 34 38 36 32 31
3 4 1 4 16 21 17 20 18 16 18 19 27 23 26 27 27 28 30 28 27 28 27 27 27 29 33 31 31 33 29 27 31 32 33 35 36 37 39 40 37 36 38
4 1 4 2 1 9 18 23 23 23 24 24 28 26 27 32 28 30 32 26 26 24 24 25 26 29 29 29 33 30 31 33 34 36 36 37 38 40 40 36 34 35 37
3 1 2 2 2 2 6 8 9 9 11 20 23 20 21 24 24 25 21 20 23 20 21 24 27 29 27 28 29 33 37 37 38 38 38 39 38 35 36 34 36 38 39
3 3 2 2 3 4 6 7 8 9 11 14 14 13 15 14 14 15 17 19 19 19 22 25 28 29 29 31 32 36 36 37 39 41 39 39 38 39 36 36 37 40 41
7 7 8 7 6 7 8 10 9 9 11 13 16 17 17 16 17 19 21 21 21 23 25 28 31 31 28 32 32 33 37 40 39 40 42 41 43 37 38 37 38 40 42
Wind_Direction
254 241 238 236 228 239 226 205 231 240 241 231 255 185 180 177 184 196 204 223 241 268 288 300 296 308 305 303 304 299 300 297 302 299 301 299 302 301 299 296 285 273 261
253 246 239 237 230 242 234 229 238 227 238 232 227 217 217 191 193 196 205 226 247 274 292 300 309 309 301 294 294 292 293 298 298 294 295 297 298 303 301 291 272 259 257
254 254 245 239 241 247 256 239 239 232 229 236 198 197 188 196 193 193 206 217 246 283 290 303 298 293 289 287 286 291 292 292 289 289 293 296 302 302 294 282 274 272 268
259 254 255 250 246 255 263 260 245 248 240 234 192 199 212 194 193 190 200 215 241 257 276 284 285 288 288 287 290 291 296 284 283 283 287 295 300 289 271 262 257 263 268
259 253 251 247 244 248 255 260 251 259 241 239 209 203 201 200 194 194 204 206 222 239 261 273 282 291 292 290 291 286 279 276 272 276 281 289 292 273 261 257 253 254 252
256 252 251 240 240 241 250 254 256 257 256 242 229 206 202 198 190 198 206 209 231 230 250 270 281 281 288 287 282 271 272 267 266 270 278 280 260 252 247 247 248 247 250
254 253 251 251 245 236 234 245 243 246 247 247 233 196 198 191 194 200 211 214 227 239 253 266 269 272 281 290 281 271 264 264 261 265 269 260 252 245 241 247 248 253 253
257 251 251 247 236 246 251 237 239 230 232 230 222 190 198 189 194 206 208 210 226 239 255 273 273 272 285 283 275 266 263 260 255 250 249 241 240 241 238 241 251 264 274
265 251 240 234 229 234 246 245 238 253 244 232 202 194 192 193 199 205 204 214 226 244 264 272 273 281 286 296 273 264 259 255 247 244 242 243 240 243 246 248 261 269 270
255 232 244 232 209 221 234 237 239 247 247 219 214 214 205 199 205 205 204 215 231 254 262 271 269 272 276 288 264 254 253 245 237 239 242 240 239 240 246 256 266 261 248
248 239 236 240 240 224 234 229 244 240 210 208 212 193 204 211 210 206 212 215 239 249 267 271 263 263 281 275 262 248 237 230 225 236 241 242 243 242 245 255 255 243 253
249 229 219 224 234 229 233 229 222 215 206 194 200 198 216 215 205 209 215 223 236 248 252 252 254 260 271 262 257 250 240 231 224 233 236 240 247 249 253 259 254 251 257
252 206 209 243 231 223 227 209 203 195 185 199 196 206 206 211 214 212 216 222 224 242 257 254 252 259 261 261 259 249 241 225 225 229 236 237 240 246 250 250 252 255 260
298 264 240 217 209 236 209 208 211 198 186 195 206 210 215 214 217 214 216 226 229 242 252 256 252 258 251 244 248 244 227 218 224 230 237 240 244 250 253 259 261 262 268
262 268 250 219 225 227 200 204 212 193 190 209 222 210 213 218 221 218 222 221 224 237 248 250 250 246 244 245 242 238 221 218 226 235 237 244 245 254 257 258 257 270 272
270 253 246 238 142 100 187 199 212 242 218 218 217 216 209 212 222 206 214 224 230 237 242 251 245 242 241 240 237 220 220 221 227 231 235 248 251 257 264 269 279 277 277
268 242 237 226 146 143 138 169 188 211 204 206 205 199 205 206 199 205 220 221 230 239 244 250 252 249 244 239 231 221 214 221 225 227 235 242 256 261 276 287 281 279 283
290 230 228 222 140 152 127 149 166 181 195 197 195 195 197 206 217 215 220 227 233 243 248 249 252 250 249 239 223 216 220 223 226 233 242 250 258 276 280 283 287 286 284
335 213 213 216 277 181 215 205 176 172 175 184 195 203 216 222 222 224 229 241 246 249 254 256 250 249 242 234 217 212 219 226 231 234 248 255 267 275 283 287 286 286 283
4 232 223 214 235 241 188 191 200 192 208 198 210 215 223 216 221 230 236 243 246 251 257 254 254 245 228 222 218 211 223 225 228 247 255 263 271 278 283 288 291 289 288
359 14 272 249 263 252 209 223 216 202 230 230 228 230 235 235 242 237 240 244 250 255 252 252 244 225 219 212 210 217 228 219 239 249 256 265 271 276 283 288 288 288 290
328 331 28 273 237 228 237 212 239 239 229 231 219 231 239 244 242 245 247 250 248 247 246 233 221 223 218 218 216 223 224 237 248 255 261 267 273 280 283 287 289 287 287
286 285 288 275 91 185 219 238 238 249 250 238 229 243 249 244 244 249 254 248 245 236 229 221 213 217 220 218 226 233 241 246 252 256 261 269 276 282 285 287 285 284 285
304 259 229 258 211 161 182 190 208 209 211 217 228 233 234 236 233 234 241 238 228 225 219 216 219 225 226 232 236 239 242 246 252 258 265 271 275 280 284 286 285 285 286
273 266 228 237 241 196 200 220 224 210 192 197 208 215 213 208 202 204 215 221 225 231 230 237 242 240 239 241 242 246 249 252 257 263 267 270 272 281 283 285 286 286 287
252 262 268 256 235 237 219 202 209 210 208 206 204 211 212 210 212 213 219 225 236 237 242 247 252 253 253 252 251 255 259 261 263 267 272 272 271 274 282 283 283 285 286